When you browse on this site, cookies collect data to enhance your experience and personalize the content and advertising you see.
Visit our Privacy Policy to learn more. By continuing to use the site, you agree to this use of cookies and data.
  • In Hungary
  • List of Countries
  • For 7 days
  • Water Temperature
  • Weather Map
  • News
  • Weather Widgets
  • user-avatar
    Login

    Hourly Weather Shadyki

    Today, 25 January, Saturday

    Time Temperature Precipitation Wind Pressure Humidity
    00:00 0°C° 0.1 mm 5 mps 728 mmHg 92%
    01:00 -1°C° 0.1 mm 4 mps 728 mmHg 92%
    02:00 -1°C° 0.1 mm 4 mps 728 mmHg 92%
    03:00 -1°C° 0 mm 4 mps 728 mmHg 92%
    04:00 -1°C° 0 mm 4 mps 728 mmHg 92%
    05:00 -1°C° 0 mm 4 mps 727 mmHg 93%
    06:00 -1°C° 0 mm 4 mps 727 mmHg 91%
    07:00 -1°C° 0 mm 4 mps 727 mmHg 88%
    08:00 -1°C° 0 mm 4 mps 726 mmHg 86%
    09:00 -1°C° 0.2 mm 5 mps 726 mmHg 87%
    10:00 -2°C° 0.2 mm 7 mps 726 mmHg 88%
    11:00 -2°C° 0.2 mm 8 mps 726 mmHg 88%
    12:00 -2°C° 0.2 mm 7 mps 727 mmHg 81%
    13:00 -3°C° 0.2 mm 7 mps 727 mmHg 74%
    14:00 -3°C° 0.2 mm 7 mps 727 mmHg 66%
    15:00 -3°C° 0 mm 6 mps 728 mmHg 68%
    16:00 -4°C° 0 mm 6 mps 729 mmHg 70%
    17:00 -4°C° 0 mm 6 mps 729 mmHg 72%
    18:00 -4°C° 0 mm 6 mps 729 mmHg 74%
    19:00 -5°C° 0 mm 6 mps 730 mmHg 76%
    20:00 -6°C° 0 mm 7 mps 730 mmHg 78%
    21:00 -5°C° 0 mm 6 mps 731 mmHg 77%
    22:00 -5°C° 0 mm 6 mps 732 mmHg 76%
    23:00 -5°C° 0 mm 6 mps 733 mmHg 75%

    Tomorrow, 26 January, Sunday

    Time Temperature Precipitation Wind Pressure Humidity
    00:00 -5°C° 0 mm 5 mps 734 mmHg 76%
    01:00 -5°C° 0 mm 5 mps 734 mmHg 77%
    02:00 -4°C° 0 mm 4 mps 735 mmHg 77%
    03:00 -5°C° 0 mm 4 mps 736 mmHg 78%
    04:00 -5°C° 0 mm 4 mps 736 mmHg 80%
    05:00 -5°C° 0 mm 3 mps 737 mmHg 81%
    06:00 -5°C° 0 mm 3 mps 737 mmHg 82%
    07:00 -5°C° 0 mm 3 mps 737 mmHg 83%
    08:00 -5°C° 0 mm 3 mps 737 mmHg 84%
    09:00 -4°C° 0 mm 3 mps 737 mmHg 82%
    10:00 -4°C° 0 mm 4 mps 737 mmHg 80%
    11:00 -3°C° 0 mm 4 mps 737 mmHg 77%
    12:00 -4°C° 0.2 mm 5 mps 736 mmHg 80%
    13:00 -4°C° 0.2 mm 5 mps 736 mmHg 83%
    14:00 -3°C° 0.2 mm 6 mps 735 mmHg 86%
    15:00 -3°C° 0.5 mm 6 mps 735 mmHg 89%
    16:00 -2°C° 0.5 mm 6 mps 734 mmHg 93%
    17:00 -2°C° 0.5 mm 6 mps 734 mmHg 96%
    18:00 0°C° 0.1 mm 5 mps 734 mmHg 94%
    19:00 0°C° 0.1 mm 5 mps 734 mmHg 92%
    20:00 +1°C° 0.1 mm 5 mps 734 mmHg 90%
    21:00 +1°C° 0 mm 5 mps 734 mmHg 90%
    22:00 +1°C° 0 mm 5 mps 734 mmHg 90%
    23:00 +1°C° 0 mm 5 mps 734 mmHg 90%

    Day after tomorrow, 27 January, Monday

    Time Temperature Precipitation Wind Pressure Humidity
    00:00 +1°C° 0.1 mm 5 mps 734 mmHg 91%
    01:00 +1°C° 0.1 mm 4 mps 735 mmHg 91%
    02:00 +1°C° 0.1 mm 4 mps 735 mmHg 92%
    03:00 +1°C° 0.1 mm 4 mps 735 mmHg 93%
    04:00 +1°C° 0.1 mm 4 mps 735 mmHg 93%
    05:00 0°C° 0.1 mm 4 mps 735 mmHg 94%
    06:00 +1°C° 0.1 mm 3 mps 736 mmHg 95%
    07:00 +1°C° 0.1 mm 3 mps 736 mmHg 96%
    08:00 +2°C° 0.1 mm 2 mps 736 mmHg 97%
    09:00 +2°C° 0.1 mm 2 mps 736 mmHg 97%
    10:00 +2°C° 0.1 mm 2 mps 737 mmHg 97%
    11:00 +2°C° 0.1 mm 2 mps 737 mmHg 98%
    12:00 +2°C° 0.1 mm 2 mps 737 mmHg 98%
    13:00 +2°C° 0.1 mm 2 mps 737 mmHg 98%
    14:00 +3°C° 0.1 mm 1 mps 737 mmHg 98%
    15:00 +2°C° 0.3 mm 2 mps 737 mmHg 98%
    16:00 +2°C° 0.3 mm 2 mps 737 mmHg 98%
    17:00 +2°C° 0.3 mm 2 mps 736 mmHg 98%
    18:00 +2°C° 0.3 mm 2 mps 736 mmHg 98%
    19:00 +2°C° 0.3 mm 2 mps 736 mmHg 98%
    20:00 +2°C° 0.3 mm 2 mps 736 mmHg 98%
    21:00 +2°C° 0.2 mm 2 mps 736 mmHg 98%
    22:00 +1°C° 0.2 mm 2 mps 736 mmHg 98%
    23:00 +2°C° 0.2 mm 1 mps 736 mmHg 98%

    28 January, Tuesday

    Time Temperature Precipitation Wind Pressure Humidity
    00:00 +2°C° 0.1 mm 1 mps 736 mmHg 98%
    01:00 +1°C° 0.1 mm 2 mps 736 mmHg 98%
    02:00 +1°C° 0.1 mm 2 mps 736 mmHg 98%
    03:00 +1°C° 0.3 mm 2 mps 735 mmHg 98%
    04:00 +1°C° 0.3 mm 2 mps 735 mmHg 98%
    05:00 +1°C° 0.3 mm 2 mps 735 mmHg 98%
    06:00 +1°C° 0.2 mm 2 mps 735 mmHg 98%
    07:00 +1°C° 0.2 mm 2 mps 735 mmHg 98%
    08:00 +1°C° 0.2 mm 2 mps 735 mmHg 98%
    09:00 +1°C° 0.1 mm 2 mps 735 mmHg 98%
    10:00 +1°C° 0.1 mm 2 mps 735 mmHg 97%
    11:00 +1°C° 0.1 mm 2 mps 735 mmHg 97%
    12:00 +1°C° 0.1 mm 2 mps 734 mmHg 97%
    13:00 -1°C° 0.1 mm 2 mps 734 mmHg 97%
    14:00 -1°C° 0.1 mm 2 mps 734 mmHg 97%
    15:00 -1°C° 0.1 mm 2 mps 734 mmHg 97%
    16:00 -1°C° 0.1 mm 2 mps 734 mmHg 97%
    17:00 -1°C° 0.1 mm 2 mps 734 mmHg 96%
    18:00 -2°C° 0 mm 2 mps 734 mmHg 97%
    19:00 -2°C° 0 mm 2 mps 734 mmHg 97%
    20:00 -2°C° 0 mm 2 mps 734 mmHg 97%
    21:00 0°C° 0.1 mm 1 mps 733 mmHg 97%
    22:00 0°C° 0.1 mm 1 mps 733 mmHg 97%
    23:00 0°C° 0.1 mm 1 mps 733 mmHg 97%

    29 January, Wednesday

    Time Temperature Precipitation Wind Pressure Humidity
    00:00 +1°C° 0.1 mm 1 mps 733 mmHg 97%
    01:00 -1°C° 0.1 mm 2 mps 733 mmHg 97%
    02:00 -1°C° 0.1 mm 2 mps 733 mmHg 98%
    03:00 -1°C° 0.1 mm 2 mps 733 mmHg 97%
    04:00 +1°C° 0.1 mm 2 mps 733 mmHg 97%
    05:00 +1°C° 0.1 mm 2 mps 732 mmHg 97%
    06:00 +1°C° 0.1 mm 2 mps 732 mmHg 97%
    07:00 +1°C° 0.1 mm 2 mps 732 mmHg 97%
    08:00 +1°C° 0.1 mm 2 mps 732 mmHg 97%
    09:00 0°C° 0 mm 3 mps 732 mmHg 96%
    10:00 0°C° 0 mm 3 mps 732 mmHg 95%
    11:00 0°C° 0 mm 3 mps 732 mmHg 94%
    12:00 0°C° 0 mm 3 mps 732 mmHg 92%
    13:00 0°C° 0 mm 3 mps 732 mmHg 91%
    14:00 0°C° 0 mm 3 mps 731 mmHg 89%
    15:00 0°C° 0 mm 3 mps 731 mmHg 90%
    16:00 0°C° 0 mm 3 mps 731 mmHg 91%
    17:00 0°C° 0 mm 3 mps 731 mmHg 91%
    18:00 0°C° 0 mm 3 mps 731 mmHg 93%
    19:00 0°C° 0 mm 3 mps 731 mmHg 94%
    20:00 0°C° 0 mm 3 mps 731 mmHg 95%
    21:00 0°C° 0 mm 3 mps 731 mmHg 95%
    22:00 -1°C° 0 mm 4 mps 731 mmHg 95%
    23:00 -1°C° 0 mm 4 mps 730 mmHg 95%

    30 January, Thursday

    Time Temperature Precipitation Wind Pressure Humidity
    00:00 -1°C° 0 mm 4 mps 730 mmHg 96%
    01:00 -1°C° 0 mm 4 mps 730 mmHg 96%
    02:00 -2°C° 0 mm 4 mps 730 mmHg 96%
    03:00 -2°C° 0.1 mm 4 mps 729 mmHg 96%
    04:00 -2°C° 0.1 mm 4 mps 729 mmHg 96%
    05:00 -2°C° 0.1 mm 4 mps 729 mmHg 96%
    06:00 -2°C° 0.1 mm 4 mps 728 mmHg 96%
    07:00 -1°C° 0.1 mm 4 mps 728 mmHg 96%
    08:00 -1°C° 0.1 mm 4 mps 728 mmHg 96%
    09:00 -1°C° 0.1 mm 4 mps 728 mmHg 96%
    10:00 -1°C° 0.1 mm 4 mps 728 mmHg 96%
    11:00 -1°C° 0.1 mm 4 mps 728 mmHg 96%
    12:00 -1°C° 0.1 mm 4 mps 727 mmHg 96%
    13:00 -1°C° 0.1 mm 4 mps 727 mmHg 96%
    14:00 0°C° 0.1 mm 3 mps 727 mmHg 96%
    15:00 -1°C° 0.1 mm 3 mps 727 mmHg 95%
    16:00 -1°C° 0.1 mm 3 mps 727 mmHg 94%
    17:00 -1°C° 0.1 mm 3 mps 727 mmHg 93%
    18:00 -1°C° 0.2 mm 3 mps 727 mmHg 94%
    19:00 -2°C° 0.2 mm 3 mps 727 mmHg 95%
    20:00 -2°C° 0.2 mm 3 mps 727 mmHg 96%
    21:00 -2°C° 0.1 mm 3 mps 728 mmHg 95%
    22:00 -2°C° 0.1 mm 2 mps 728 mmHg 95%
    23:00 -2°C° 0.1 mm 2 mps 728 mmHg 95%
    Show more